Location: Caltech
(34.1382°N, 118.1253°W)
Time: 20:38:33
(UTC-08:00)

Saudisat 1A - Visible Passes

Search period start: 02 December 2016 00:00
Search period end: 12 December 2016 00:00
Orbit: 566 x 627 km, 64.6° (Epoch: 02 December)

Date Brightness Start Highest point End Pass type
(mag) Time Alt. Az. Time Alt. Az. Time Alt. Az.
08 Dec 10.3 18:15:54 10° N 18:16:24 12° N 18:16:24 12° N visible
09 Dec 9.6 18:25:22 10° N 18:27:14 21° N 18:27:14 21° N visible
10 Dec 8.5 18:35:11 10° NNW 18:38:31 47° N 18:38:31 47° N visible
11 Dec 9.8 17:07:41 10° NNE 17:09:48 13° NE 17:11:55 10° ENE visible
11 Dec 8.3 18:45:16 10° NW 18:49:40 63° WSW 18:50:37 49° S visible
